This demonstration page uses our WeatherBlox Daily Observations layout. Learn more.

Left ArrowRight Arrow

Hourly Observations for June 29, 2017

Temp ( °F °C ) Dew Point ( °F °C ) Humidity (%) Winds ( mph kmh ) Pressure ( in mb ) Visibility ( mi km ) Precip ( " mm )
12:52 am 00:52 Clear 74 23.3 66 18.9 76 76 SSE 13 20 29.86 1011 10 16 0.00 0.00
1:52 am 01:52 Clear 73 22.8 66 18.9 79 79 SSE 12 19 29.86 1011 10 16 0.00 0.00
2:52 am 02:52 Clear 72 22.2 67 19.4 84 84 SSE 12 19 29.85 1011 10 16 0.00 0.00
3:52 am 03:52 Clear 72 22.2 67 19.4 84 84 SSE 13 20 29.85 1011 10 16 0.00 0.00
4:52 am 04:52 Clear 72 22.2 67 19.4 84 84 SSE 12 19 29.87 1011 10 16 0.00 0.00
5:52 am 05:52 Clear 71 21.7 67 19.4 87 87 SSE 13 20 29.88 1012 10 16 0.00 0.00
6:52 am 06:52 Sunny 72 22.2 68 20 87 87 SSE 12 19 29.88 1012 10 16 0.00 0.00
7:52 am 07:52 Sunny 74 23.3 68 20 82 82 SSE 13 20 29.89 1012 10 16 0.00 0.00
8:52 am 08:52 Sunny 77 25 69 20.6 77 77 S 13 20 29.89 1012 10 16 0.00 0.00
9:52 am 09:52 Sunny 78 25.6 69 20.6 74 74 S 13 20 29.89 1012 10 16 0.00 0.00
10:52 am 10:52 Sunny 81 27.2 70 21.1 69 69 S 10 17 29.89 1012 10 16 0.00 0.00
11:52 am 11:52 Mostly Sunny 83 28.3 71 21.7 67 67 SSE 13 20 29.88 1012 10 16 0.00 0.00
12:52 pm 12:52 Partly Cloudy 85 29.4 71 21.7 63 63 S 13 20 29.88 1012 10 16 0.00 0.00
1:52 pm 13:52 Mostly Sunny 86 30 71 21.7 61 61 SSE 16 26 29.86 1011 10 16 0.00 0.00
2:52 pm 14:52 Mostly Sunny 86 30 70 21.1 59 59 SSE 17 28 29.80 1009 10 16 0.00 0.00
3:52 pm 15:52 Mostly Sunny 86 30 69 20.6 57 57 S 15 24 29.81 1009 10 16 0.00 0.00
4:52 pm 16:52 Partly Cloudy 85 29.4 69 20.6 59 59 S 17 28 29.80 1009 10 16 0.00 0.00
5:52 pm 17:52 Mostly Sunny 85 29.4 70 21.1 61 61 S 15 24 29.80 1009 10 16 0.00 0.00
6:52 pm 18:52 Mostly Sunny 83 28.3 69 20.6 63 63 S 14 22 29.81 1010 10 16 0.00 0.00
7:52 pm 19:52 Mostly Sunny 81 27.2 68 20 65 65 S 10 17 29.82 1010 10 16 0.00 0.00
8:52 pm 20:52 Clear 77 25 69 20.6 77 77 S 8 13 29.83 1010 10 16 0.00 0.00
9:52 pm 21:52 Clear 76 24.4 68 20 77 77 S 9 15 29.84 1011 10 16 0.00 0.00
10:52 pm 22:52 Clear 75 23.9 68 20 79 79 S 9 15 29.85 1011 10 16 0.00 0.00
11:52 pm 23:52 Clear 73 22.8 68 20 84 84 SSE 9 15 29.85 1011 10 16 0.00 0.00

Powered by AerisWeather